W4RJF Weather Reports


Display with metric or nautical units.
time (UTC)temp
F
wind
direction
speed
MPH
gust
MPH
rain 1hr
in
rain 24hr
in
rain mn
in
humidity
%
barometer
mb
20260507230511 55 85 0.0 3.0 0.00 1.26 1.26 90 1010.4
20260507230016 55 88 0.0 2.0 0.00 1.26 1.26 90 1010.4
20260507225510 55 84 0.0 2.0 0.00 1.26 1.26 90 1010.4
20260507225004 55 299 0.0 2.0 0.00 1.26 1.26 90 1010.4
20260507224520 55 105 0.0 4.0 0.00 1.26 1.26 90 1010.2
20260507224007 55 106 1.0 4.0 0.00 1.26 1.26 90 1010.3
20260507223508 55 113 1.0 4.0 0.00 1.26 1.26 90 1010.2
20260507223021 55 93 0.0 2.0 0.00 1.26 1.26 90 1010.2
20260507222510 55 80 0.0 2.0 0.00 1.26 1.26 90 1010.0
20260507222011 55 303 1.0 3.0 0.00 1.26 1.26 91 1009.9
20260507221525 55 95 1.0 3.0 0.00 1.26 1.26 90 1010.1
20260507221009 55 109 0.0 6.0 0.00 1.26 1.26 91 1010.0
20260507220510 55 87 1.0 6.0 0.00 1.26 1.26 91 1010.2
20260507220026 54 104 1.0 3.0 0.00 1.26 1.26 92 1009.9
20260507215507 54 107 1.0 2.0 0.00 1.26 1.26 91 1010.3
20260507215005 54 38 0.0 3.0 0.00 1.26 1.26 92 1010.3
20260507214515 54 85 0.0 3.0 0.00 1.26 1.26 92 1010.2
20260507214008 54 106 1.0 3.0 0.00 1.26 1.26 92 1009.9
20260507213507 55 175 0.0 3.0 0.00 1.26 1.26 93 1009.9
20260507213021 55 79 0.0 3.0 0.00 1.26 1.26 93 1009.8
20260507212508 55 71 0.0 3.0 0.00 1.26 1.26 93 1009.8
20260507212010 55 87 0.0 2.0 0.00 1.26 1.26 93 1009.8
20260507211524 55 204 0.0 3.0 0.01 1.26 1.26 94 1009.6
20260507211004 55 96 0.0 3.0 0.01 1.26 1.26 93 1009.5
20260507210507 55 302 0.0 3.0 0.01 1.26 1.26 94 1009.6
20260507210012 55 89 1.0 4.0 0.01 1.26 1.26 93 1009.4
20260507205505 56 77 1.0 4.0 0.01 1.26 1.26 94 1009.5
20260507205009 56 25 1.0 3.0 0.01 1.26 1.26 94 1009.4
20260507204516 56 94 0.0 3.0 0.01 1.26 1.26 94 1009.2
20260507204006 56 77 1.0 6.0 0.01 1.26 1.26 94 1009.3
20260507203507 56 85 1.0 6.0 0.01 1.26 1.26 94 1009.3
20260507203019 56 240 0.0 2.0 0.01 1.26 1.26 94 1009.1
20260507202508 56 73 0.0 6.0 0.01 1.26 1.26 94 1009.2
20260507202009 57 71 0.0 6.0 0.01 1.26 1.26 94 1009.3
20260507201528 57 82 0.0 4.0 0.00 1.25 1.25 94 1009.2
20260507201010 57 94 0.0 4.0 0.00 1.25 1.25 94 1009.3
20260507200510 57 92 0.0 4.0 0.00 1.25 1.25 94 1009.1
20260507200011 57 332 2.0 4.0 0.00 1.25 1.25 94 1009.3
20260507195504 58 302 0.0 2.0 0.00 1.25 1.25 94 1009.2
20260507195005 58 192 0.0 2.0 0.00 1.25 1.25 94 1009.1
20260507194514 58 346 0.0 3.0 0.00 1.25 1.25 94 1009.2
20260507194005 58 130 0.0 3.0 0.00 1.25 1.25 94 1009.1
20260507193506 58 60 0.0 6.0 0.00 1.26 1.25 94 1009.0
20260507193025 58 199 0.0 6.0 0.00 1.26 1.25 93 1009.1
20260507192508 59 54 0.0 2.0 0.00 1.26 1.25 94 1009.0
20260507192008 59 300 0.0 2.0 0.00 1.26 1.25 94 1009.0
20260507191521 59 87 0.0 4.0 0.00 1.26 1.25 94 1009.0
20260507191008 59 315 0.0 4.0 0.00 1.26 1.25 94 1009.2
20260507190508 60 80 0.0 2.0 0.00 1.26 1.25 94 1009.0
20260507190026 60 96 0.0 3.0 0.00 1.26 1.25 94 1008.7
20260507185508 60 21 0.0 3.0 0.00 1.26 1.25 93 1008.2
20260507185010 60 104 1.0 2.0 0.00 1.26 1.25 93 1008.1
20260507184512 61 66 0.0 2.0 0.00 1.26 1.25 94 1008.6
20260507184005 61 89 0.0 3.0 0.00 1.26 1.25 92 1008.6
20260507183506 62 110 1.0 5.0 0.00 1.26 1.25 92 1008.8
20260507183025 63 39 1.0 7.0 0.00 1.26 1.25 91 1008.9
20260507182505 64 309 0.0 7.0 0.00 1.26 1.25 89 1008.6
20260507182007 67 69 1.0 3.0 0.00 1.26 1.25 85 1008.0
20260507181518 71 74 1.0 2.0 0.00 1.26 1.25 90 1008.1
20260507181009 71 171 0.0 2.0 0.00 1.26 1.25 92 1008.3
20260507180507 70 175 0.0 1.0 0.00 1.26 1.25 93 1007.9
20260507180023 70 241 0.0 2.0 0.00 1.26 1.25 94 1008.2
20260507175508 69 244 0.0 2.0 0.00 1.26 1.25 94 1008.4
20260507175008 69 261 0.0 1.0 0.00 1.26 1.25 94 1008.6
20260507174532 69 228 0.0 2.0 0.00 1.26 1.25 94 1008.6
20260507174009 69 295 0.0 2.0 0.00 1.26 1.25 94 1008.6
20260507173505 69 234 0.0 0.0 0.00 1.26 1.25 95 1008.3
20260507173013 69 234 0.0 2.0 0.00 1.26 1.25 95 1008.3
20260507172505 68 240 0.0 2.0 0.00 1.26 1.25 95 1008.3
20260507172008 69 206 0.0 2.0 0.00 1.26 1.25 95 1008.2
20260507171527 69 192 0.0 2.0 0.00 1.26 1.25 96 1008.1
20260507171006 68 192 1.0 2.0 0.00 1.26 1.25 96 1007.9
20260507170508 68 199 0.0 2.0 0.00 1.26 1.25 96 1008.2
20260507170022 68 199 0.0 2.0 0.00 1.26 1.25 96 1008.2
20260507165508 68 192 0.0 2.0 0.00 1.26 1.25 95 1008.3
20260507165008 68 195 0.0 2.0 0.00 1.26 1.25 95 1008.5
20260507164523 68 219 0.0 1.0 0.00 1.26 1.25 95 1008.8
20260507164010 68 232 0.0 0.0 0.00 1.26 1.25 96 1008.8
20260507163510 68 289 0.0 0.0 0.00 1.26 1.25 96 1009.1
20260507163027 68 290 0.0 2.0 0.00 1.26 1.25 96 1009.1
20260507162506 68 290 0.0 2.0 0.01 1.26 1.25 96 1009.2
20260507162008 68 290 0.0 0.0 0.01 1.26 1.25 96 1009.4
20260507161519 68 304 0.0 0.0 0.01 1.26 1.25 96 1009.6
20260507161008 68 306 0.0 2.0 0.02 1.26 1.25 96 1009.6
20260507160511 68 306 0.0 2.0 0.04 1.26 1.25 96 1009.7
20260507160031 68 78 0.0 0.0 0.05 1.26 1.25 96 1009.9
20260507155510 68 13 0.0 0.0 0.07 1.26 1.25 96 1009.8
20260507155010 67 26 0.0 0.0 0.09 1.26 1.25 96 1009.4
20260507154522 67 26 0.0 2.0 0.14 1.26 1.25 96 1009.3
20260507154009 67 84 0.0 2.0 0.21 1.26 1.25 96 1009.2
20260507153510 67 82 0.0 2.0 0.26 1.26 1.25 96 1009.0
20260507153025 67 266 0.0 2.0 0.30 1.26 1.25 96 1009.3
20260507152509 67 268 0.0 2.0 0.34 1.25 1.24 96 1009.6
20260507152012 66 175 0.0 2.0 0.38 1.25 1.24 96 1009.1
20260507151527 66 153 0.0 1.0 0.44 1.25 1.24 96 1009.3
20260507151006 66 226 0.0 2.0 0.48 1.24 1.23 96 1009.5
20260507150508 66 139 0.0 2.0 0.51 1.22 1.21 96 1009.5
20260507150021 66 204 0.0 2.0 0.52 1.21 1.20 96 1009.7
20260507145503 66 327 0.0 2.0 0.50 1.19 1.17 96 1010.0
20260507145005 66 253 0.0 4.0 0.48 1.16 1.16 96 1010.1
20260507144003 67 275 0.0 3.0 0.36 1.04 1.04 96 1010.0
20260507143502 67 215 1.0 3.0 0.31 1.00 0.99 96 1009.9
20260507142502 67 233 0.0 2.0 0.22 0.91 0.90 96 1010.1
20260507142005 67 153 0.0 2.0 0.18 0.87 0.86 96 1010.2
20260507141511 67 233 0.0 2.0 0.12 0.81 0.80 96 1010.2
20260507141007 67 51 0.0 2.0 0.07 0.76 0.75 96 1010.2
20260507140507 67 290 0.0 1.0 0.02 0.71 0.70 96 1010.3
20260507140015 67 180 0.0 1.0 0.00 0.69 0.68 96 1010.2
20260507135506 67 180 0.0 1.0 0.00 0.69 0.68 96 1010.2
20260507135006 67 182 0.0 2.0 0.00 0.69 0.68 96 1010.2
20260507134504 67 178 0.0 2.0 0.00 0.69 0.68 96 1010.2
20260507134003 67 23 0.0 0.0 0.00 0.69 0.68 96 1010.1
20260507133503 67 23 0.0 1.0 0.00 0.69 0.68 96 1010.1
20260507133004 67 23 0.0 1.0 0.00 0.69 0.68 96 1010.1
20260507132503 67 24 0.0 1.0 0.00 0.69 0.68 96 1010.1
20260507132003 67 296 0.0 0.0 0.00 0.69 0.68 96 1010.2
20260507131512 67 209 0.0 1.0 0.00 0.69 0.68 96 1010.2
20260507131004 67 209 0.0 2.0 0.00 0.69 0.68 96 1010.1
20260507130505 67 199 0.0 2.0 0.00 0.69 0.68 96 1010.1
20260507130030 67 182 0.0 2.0 0.00 0.69 0.68 96 1009.9
20260507125509 67 188 0.0 2.0 0.00 0.69 0.68 96 1010.0
20260507125011 67 224 0.0 2.0 0.00 0.69 0.68 96 1010.0
20260507124519 67 218 0.0 2.0 0.00 0.69 0.68 96 1010.0
20260507124008 67 230 0.0 2.0 0.00 0.69 0.68 96 1010.0
20260507123507 67 202 0.0 2.0 0.00 0.69 0.68 96 1010.0
20260507123006 66 201 0.0 2.0 0.00 0.69 0.68 96 1010.1
20260507122503 66 190 0.0 2.0 0.00 0.69 0.68 96 1010.2
20260507122004 66 215 0.0 2.0 0.00 0.69 0.68 96 1010.3
20260507121508 66 208 0.0 2.0 0.00 0.69 0.68 96 1010.4
20260507121004 66 211 0.0 2.0 0.00 0.69 0.68 96 1010.3
20260507120503 66 232 0.0 2.0 0.00 0.69 0.68 96 1010.5
20260507115507 66 202 0.0 2.0 0.00 0.69 0.68 96 1010.6
20260507115006 66 202 0.0 2.0 0.00 0.69 0.68 96 1010.6
20260507114522 66 194 0.0 2.0 0.00 0.69 0.68 96 1010.7
20260507114006 66 194 0.0 2.0 0.01 0.69 0.68 96 1010.8
20260507113509 66 194 0.0 2.0 0.01 0.69 0.68 96 1010.8
20260507113024 66 203 0.0 0.0 0.02 0.69 0.68 96 1010.8
20260507112507 66 203 0.0 2.0 0.02 0.69 0.68 96 1010.8
20260507112005 66 203 0.0 2.0 0.02 0.69 0.68 96 1010.7
20260507111004 66 199 0.0 0.0 0.03 0.69 0.68 96 1010.9
20260507110504 66 195 0.0 0.0 0.03 0.69 0.68 96 1010.9
20260507110015 65 190 0.0 0.0 0.03 0.69 0.68 96 1010.9
20260507105504 65 190 0.0 0.0 0.04 0.69 0.68 96 1010.7
20260507105003 65 190 0.0 0.0 0.04 0.69 0.68 96 1010.6
20260507104519 66 190 0.0 0.0 0.04 0.69 0.68 96 1010.6
20260507104005 65 190 0.0 0.0 0.03 0.68 0.67 96 1010.7
20260507103506 65 190 0.0 2.0 0.03 0.68 0.67 96 1010.6
20260507103025 65 190 0.0 2.0 0.02 0.67 0.66 96 1010.6
20260507102508 65 201 0.0 2.0 0.02 0.67 0.66 96 1010.4
20260507102009 66 190 1.0 2.0 0.03 0.67 0.66 96 1010.4
20260507101526 65 192 0.0 0.0 0.03 0.67 0.66 96 1010.6
20260507101009 65 192 0.0 0.0 0.02 0.66 0.65 96 1010.8
20260507100504 65 192 0.0 0.0 0.02 0.66 0.65 96 1010.7
20260507100010 65 192 0.0 2.0 0.02 0.66 0.65 96 1010.6
20260507095503 65 190 0.0 2.0 0.01 0.65 0.64 96 1010.4
20260507095008 65 194 0.0 0.0 0.01 0.65 0.64 96 1010.4
20260507094516 65 195 0.0 0.0 0.02 0.65 0.64 96 1010.5
20260507094011 65 194 0.0 0.0 0.03 0.65 0.64 96 1010.5
20260507093504 65 194 0.0 1.0 0.04 0.65 0.64 96 1010.6
20260507093021 65 194 0.0 2.0 0.07 0.65 0.64 96 1010.3
20260507092507 65 186 0.0 2.0 0.08 0.65 0.64 96 1010.3
20260507092008 65 194 0.0 2.0 0.08 0.64 0.63 96 1010.4
20260507091533 65 221 0.0 0.0 0.08 0.64 0.63 96 1010.6
20260507091009 65 202 0.0 2.0 0.09 0.64 0.63 96 1010.6
20260507090508 65 202 0.0 2.0 0.09 0.64 0.63 96 1010.5
20260507090028 65 203 0.0 2.0 0.10 0.64 0.63 96 1010.5
20260507085504 65 195 0.0 1.0 0.10 0.64 0.63 96 1010.7
20260507085004 65 195 0.0 1.0 0.11 0.64 0.63 96 1010.7
20260507084516 65 195 0.0 2.0 0.11 0.63 0.62 96 1010.9
20260507084003 65 195 0.0 2.0 0.11 0.62 0.61 96 1010.8
20260507083507 65 233 0.0 2.0 0.10 0.61 0.60 96 1010.7
20260507082507 65 186 0.0 3.0 0.07 0.57 0.56 96 1011.2
20260507082009 65 189 0.0 1.0 0.06 0.56 0.55 96 1011.2
20260507081523 65 163 0.0 2.0 0.06 0.56 0.55 96 1011.1
20260507081006 65 200 0.0 2.0 0.05 0.55 0.54 96 1011.0
20260507080507 65 306 0.0 3.0 0.05 0.55 0.54 96 1011.1
20260507080024 65 203 0.0 3.0 0.04 0.54 0.52 96 1010.9
20260507075510 65 180 0.0 2.0 0.04 0.54 0.52 95 1010.5
20260507075010 65 17 0.0 0.0 0.03 0.52 0.52 96 1011.2
20260507074525 65 15 0.0 0.0 0.02 0.52 0.51 95 1011.4
20260507074004 65 16 0.0 0.0 0.01 0.51 0.50 95 1011.3
20260507073507 65 15 0.0 1.0 0.01 0.51 0.50 95 1011.3
20260507073017 65 13 0.0 1.0 0.01 0.51 0.50 95 1011.4
20260507072507 65 190 0.0 2.0 0.01 0.50 0.49 95 1011.2
20260507072006 65 190 0.0 2.0 0.01 0.50 0.49 95 1011.1
20260507071528 65 228 0.0 0.0 0.01 0.50 0.49 95 1011.3
20260507071005 65 263 0.0 0.0 0.01 0.50 0.49 95 1011.6
20260507070506 65 315 0.0 0.0 0.01 0.50 0.49 95 1011.6
20260507070028 65 316 0.0 0.0 0.01 0.50 0.49 95 1011.8
20260507065507 65 316 0.0 0.0 0.01 0.50 0.49 95 1011.8
20260507065010 65 316 0.0 0.0 0.01 0.50 0.49 95 1011.7
20260507064544 65 317 0.0 0.0 0.01 0.50 0.49 95 1011.7
20260507064013 65 317 0.0 0.0 0.01 0.50 0.49 95 1011.7
20260507063513 65 317 0.0 0.0 0.01 0.50 0.49 95 1011.8
20260507063016 65 317 0.0 0.0 0.01 0.50 0.49 95 1011.9
20260507062512 65 317 0.0 0.0 0.00 0.49 0.48 95 1012.1
20260507062008 65 317 0.0 0.0 0.01 0.49 0.48 95 1012.1
20260507061520 65 317 0.0 0.0 0.01 0.49 0.48 95 1012.4
20260507061009 65 317 0.0 0.0 0.02 0.49 0.48 95 1012.5
20260507060507 65 317 0.0 1.0 0.10 0.49 0.48 94 1012.4
20260507060024 65 317 0.0 1.0 0.20 0.49 0.48 94 1012.3
20260507055508 65 288 0.0 1.0 0.23 0.49 0.48 94 1012.0
20260507055007 65 212 0.0 0.0 0.24 0.49 0.48 94 1012.0
20260507054508 65 212 0.0 2.0 0.28 0.49 0.48 94 1012.2
20260507054003 65 212 0.0 2.0 0.35 0.49 0.48 94 1012.1
20260507053502 65 212 0.0 2.0 0.42 0.49 0.48 94 1011.8
20260507052504 65 312 0.0 0.0 0.48 0.49 0.48 94 1011.9
20260507052004 65 312 0.0 2.0 0.47 0.48 0.47 94 1011.9
20260507051005 66 126 0.0 2.0 0.46 0.47 0.46 93 1011.5
20260507050507 66 115 0.0 2.0 0.38 0.39 0.38 93 1012.8
20260507050035 66 302 0.0 2.0 0.28 0.29 0.28 93 1014.2
20260507045512 66 328 0.0 2.0 0.25 0.26 0.25 93 1013.7
20260507045009 67 351 0.0 2.0 0.24 0.25 0.24 92 1013.4
20260507044524 67 352 0.0 2.0 0.20 0.21 0.20 92 1013.7
20260507044010 67 12 0.0 0.0 0.13 0.14 0.13 91 1013.8
20260507043504 67 12 0.0 0.0 0.06 0.07 0.06 89 1013.9
20260507042504 69 276 0.0 2.0 0.00 0.01 0.00 85 1013.4
20260507042007 69 216 0.0 1.0 0.00 0.01 0.00 84 1013.2
20260507041004 69 192 0.0 2.0 0.00 0.01 0.00 83 1013.0
20260507040505 69 178 0.0 2.0 0.00 0.01 0.00 83 1013.0
20260507035505 69 298 0.0 3.0 0.00 0.01 0.01 81 1013.0
20260507035011 69 214 0.0 3.0 0.00 0.01 0.01 81 1012.9
20260507034524 70 273 0.0 2.0 0.00 0.01 0.01 79 1012.8
20260507034009 71 202 0.0 2.0 0.00 0.01 0.01 77 1012.4
20260507033509 72 194 0.0 1.0 0.00 0.01 0.01 73 1012.3
20260507033024 72 226 0.0 1.0 0.00 0.01 0.01 71 1012.5
20260507032510 72 226 0.0 0.0 0.00 0.01 0.01 71 1012.7
20260507032003 72 229 0.0 1.0 0.00 0.01 0.01 71 1012.7
20260507031003 73 198 0.0 2.0 0.00 0.01 0.01 70 1012.8
20260507030507 73 202 0.0 0.0 0.00 0.01 0.01 69 1012.8
20260507030027 72 202 0.0 2.0 0.00 0.01 0.01 70 1012.7
20260507025505 72 198 0.0 2.0 0.00 0.01 0.01 70 1012.6
20260507025006 72 196 0.0 2.0 0.00 0.01 0.01 71 1012.5
20260507024008 72 230 0.0 3.0 0.00 0.01 0.01 70 1012.4
20260507023506 72 204 0.0 2.0 0.00 0.01 0.01 71 1012.3
20260507023022 72 196 0.0 2.0 0.00 0.01 0.01 71 1012.2
20260507022509 73 196 0.0 2.0 0.00 0.01 0.01 70 1012.3
20260507022008 72 200 0.0 2.0 0.00 0.01 0.01 70 1012.3
20260507021526 72 193 0.0 2.0 0.00 0.01 0.01 71 1012.3
20260507021004 72 196 0.0 2.0 0.00 0.01 0.01 70 1012.2
20260507020504 72 199 0.0 0.0 0.00 0.01 0.01 70 1012.2
20260507015508 72 194 0.0 2.0 0.00 0.01 0.01 70 1012.3
20260507015008 72 193 0.0 2.0 0.00 0.01 0.01 71 1012.2
20260507014009 72 193 0.0 2.0 0.00 0.01 0.01 71 1012.3
20260507013507 72 190 0.0 0.0 0.00 0.01 0.01 72 1012.4
20260507012510 71 189 0.0 0.0 0.00 0.01 0.01 72 1012.3
20260507012009 71 189 0.0 1.0 0.00 0.01 0.01 74 1012.3
20260507011525 71 190 0.0 1.0 0.00 0.01 0.01 75 1012.3
20260507011009 71 157 0.0 0.0 0.00 0.01 0.01 73 1012.3
20260507010509 71 157 0.0 0.0 0.00 0.01 0.01 75 1012.3
20260507010038 71 157 0.0 0.0 0.00 0.01 0.01 75 1012.3
20260507005505 71 157 0.0 0.0 0.00 0.01 0.01 74 1012.3
20260507005009 71 157 0.0 0.0 0.00 0.01 0.01 74 1012.3
20260507004006 71 157 0.0 0.0 0.00 0.01 0.01 73 1012.4
20260507003506 72 157 0.0 0.0 0.00 0.01 0.01 73 1012.4
20260507003025 72 157 0.0 0.0 0.00 0.01 0.01 72 1012.4
20260507002507 72 157 0.0 0.0 0.00 0.01 0.01 72 1012.3
20260507002016 72 157 0.0 0.0 0.00 0.01 0.01 72 1012.1
20260507001010 73 157 0.0 0.0 0.00 0.01 0.01 69 1012.1
20260507000508 73 157 0.0 0.0 0.00 0.01 0.01 70 1012.2
20260507000026 73 157 0.0 0.0 0.00 0.01 0.01 69 1012.3
20260506235508 74 157 0.0 0.0 0.00 0.01 0.01 69 1012.2
20260506235011 74 157 0.0 0.0 0.00 0.01 0.01 67 1012.0
20260506234519 74 157 0.0 5.0 0.00 0.01 0.01 66 1011.9
20260506234005 75 157 0.0 5.0 0.00 0.01 0.01 66 1011.8
20260506233507 75 210 0.0 0.0 0.00 0.01 0.01 65 1011.9
20260506233024 76 210 0.0 2.0 0.00 0.01 0.01 65 1012.0
20260506232507 76 216 0.0 2.0 0.00 0.01 0.01 64 1011.9
20260506232008 76 216 0.0 2.0 0.00 0.01 0.01 64 1012.0
20260506231012 76 194 0.0 3.0 0.00 0.01 0.01 63 1011.9